Weather History for Russell, KS

Change the Weather History Date:

Sunday, March 17, 2013

  Actual Average Record
Temperature  
Mean Temperature 38 °F -  
Max Temperature 46 °F 55 °F 84 °F (2012)
Min Temperature 30 °F 32 °F 5 °F (1958)
Degree Days  
Heating Degree Days 27    
Moisture  
Dew Point 30 °F    
Average Humidity 78    
Maximum Humidity 88    
Minimum Humidity 60    
Precipitation  
Precipitation 0.00 in - - ()
Sea Level Pressure  
Sea Level Pressure 29.87 in    
Wind  
Wind Speed 11 mph (East)    
Max Wind Speed 15 mph    
Max Gust Speed 24 mph    
Visibility 9 miles    
Events      
Averages and records for this station are not official NWS values.
T = Trace of Precipitation, MM = Missing Value Source: NWS Daily Summary

Daily Weather History Graph

Daily Weather History Graph

Search for Another Location

Airport:

Trip Planner

Search our weather history database for the weather conditions in past years. The results will help you decide how hot, cold, wet, or windy it might be!

Date:

Astronomy

Mar. 17, 2013 Rise Set
Actual Time 7:42 AM CDT 7:44 PM CDT
Civil Twilight 7:16 AM CDT 8:11 PM CDT
Nautical Twilight 6:45 AM CDT 8:42 PM CDT
Astronomical Twilight 6:14 AM CDT 9:13 PM CDT
Moon 10:59 AM CDT 12:50 AM CDT
Length of Visible Light 12h 54m
Length of Day
12h 01m
Waxing Crescent, 31% of the Moon is Illuminated
Mar 17
Waxing Crescent
Mar 19
First Quarter
Mar 27
Full
Apr 2
Last Quarter
Apr 10
New

Hourly Weather History & Observations

Time (CDT) Temp. Windchill Dew Point Humidity Pressure Visibility Wind Dir Wind Speed Gust Speed Precip Events Conditions
12:04 AM 30.2 °F 20.8 °F 26.6 °F 86% 30.01 in 10.0 mi NE 11.5 mph 19.6 mph N/A   Overcast
12:39 AM 30.2 °F 19.8 °F 26.6 °F 86% 30.00 in 10.0 mi ENE 13.8 mph - N/A   Overcast
12:53 AM 30.0 °F 20.0 °F 26.1 °F 85% 30.05 in 9.0 mi ENE 12.7 mph - N/A   Overcast
1:53 AM 30.9 °F 21.2 °F 27.0 °F 85% 30.02 in 9.0 mi ENE 12.7 mph - N/A   Overcast
2:53 AM 30.9 °F 21.7 °F 27.0 °F 85% 30.02 in 9.0 mi ENE 11.5 mph - N/A   Overcast
3:53 AM 30.9 °F 22.8 °F 27.0 °F 85% 30.01 in 7.0 mi ENE 9.2 mph - N/A   Overcast
4:53 AM 30.0 °F 22.4 °F 27.0 °F 88% 30.00 in 8.0 mi ENE 8.1 mph - N/A   Overcast
5:53 AM 30.0 °F 23.2 °F 27.0 °F 88% 30.01 in 9.0 mi ENE 6.9 mph - N/A   Overcast
6:53 AM 30.0 °F 24.1 °F 27.0 °F 88% 30.01 in 9.0 mi ENE 5.8 mph - N/A   Overcast
7:53 AM 30.0 °F 24.1 °F 27.0 °F 88% 30.00 in 8.0 mi NE 5.8 mph - N/A   Overcast
8:53 AM 30.9 °F 24.3 °F 27.0 °F 85% 30.01 in 7.0 mi ENE 6.9 mph - N/A   Overcast
9:22 AM 30.2 °F 20.8 °F 26.6 °F 86% 29.95 in 9.0 mi ENE 11.5 mph - N/A   Overcast
9:53 AM 32.0 °F 24.2 °F 27.0 °F 82% 30.00 in 10.0 mi ENE 9.2 mph - N/A   Overcast
10:53 AM 32.0 °F 24.8 °F 28.0 °F 85% 29.97 in 9.0 mi ENE 8.1 mph - N/A   Overcast
11:37 AM 33.8 °F 27.0 °F 28.4 °F 81% 29.90 in 10.0 mi East 8.1 mph - N/A   Overcast
11:44 AM 35.6 °F 27.5 °F 28.4 °F 75% 29.90 in 10.0 mi East 11.5 mph - N/A   Overcast
11:53 AM 34.0 °F 26.0 °F 28.0 °F 79% 29.94 in 10.0 mi East 10.4 mph - N/A   Overcast
12:27 PM 39.2 °F 32.5 °F 28.4 °F 65% 29.87 in 10.0 mi East 10.4 mph - N/A   Overcast
12:53 PM 39.0 °F 31.8 °F 28.9 °F 67% 29.91 in 10.0 mi East 11.5 mph - N/A   Mostly Cloudy
1:24 PM 42.8 °F 35.8 °F 30.2 °F 61% 29.83 in 10.0 mi ESE 13.8 mph 18.4 mph N/A   Scattered Clouds
1:53 PM 44.1 °F 37.1 °F 30.9 °F 60% 29.85 in 10.0 mi SE 15.0 mph 19.6 mph N/A   Partly Cloudy
2:22 PM 44.6 °F 38.1 °F 32.0 °F 61% 29.79 in 10.0 mi SE 13.8 mph 24.2 mph N/A   Mostly Cloudy
2:53 PM 45.0 °F 38.5 °F 32.0 °F 60% 29.80 in 10.0 mi ESE 13.8 mph 20.7 mph N/A   Overcast
3:53 PM 45.0 °F 38.9 °F 33.1 °F 63% 29.76 in 10.0 mi SE 12.7 mph - N/A   Overcast
4:53 PM 46.0 °F 41.0 °F 33.1 °F 61% 29.72 in 10.0 mi SE 10.4 mph - N/A   Overcast
5:53 PM 45.0 °F - 33.1 °F 63% 29.67 in 10.0 mi North - - N/A   Scattered Clouds
6:12 PM 44.6 °F - 33.8 °F 66% 29.64 in 10.0 mi North - - N/A   Mostly Cloudy
6:53 PM 42.1 °F - 33.1 °F 70% 29.69 in 10.0 mi North - - N/A   Overcast
7:53 PM 39.9 °F 32.5 °F 33.1 °F 77% 29.71 in 10.0 mi SSE 12.7 mph - N/A   Overcast
8:53 PM 37.9 °F 30.0 °F 33.1 °F 83% 29.71 in 10.0 mi ESE 12.7 mph - N/A   Overcast
9:53 PM 37.0 °F 31.0 °F 33.1 °F 86% 29.74 in 8.0 mi ESE 8.1 mph - N/A   Overcast
10:16 PM 37.4 °F 33.8 °F 33.8 °F 87% 29.74 in 8.0 mi ESE 4.6 mph - N/A   Overcast
10:40 PM 37.4 °F 28.5 °F 33.8 °F 87% 29.69 in 8.0 mi SE 15.0 mph - N/A   Overcast
10:53 PM 37.0 °F 29.8 °F 33.1 °F 86% 29.76 in 8.0 mi SE 10.4 mph - N/A   Overcast
11:05 PM 37.4 °F 30.8 °F 33.8 °F 87% 29.72 in 8.0 mi East 9.2 mph - N/A   Overcast
11:53 PM 37.9 °F 35.5 °F 34.0 °F 86% 29.81 in 7.0 mi SE 3.5 mph - N/A   Overcast